GW7292 Weather Reports


time (UTC)temp
F
wind
direction
speed
knots
gust
knots
rain 1hr
in
rain 24hr
in
rain mn
in
humidity
%
barometer
mb
20260510174406 79 270 0.0 0.0 0.00 0.00 0.00 62 1018.4
20260510173902 78 270 1.7 2.6 0.00 0.00 0.00 65 1018.4
20260510173357 76 270 0.0 0.0 0.00 0.00 0.00 67 1018.8
20260510172854 75 174 0.0 0.0 0.00 0.00 0.00 69 1018.8
20260510172350 75 174 0.0 0.0 0.00 0.00 0.00 69 1018.8
20260510171846 76 174 0.0 1.7 0.00 0.00 0.00 66 1019.1
20260510171344 77 174 0.0 0.0 0.00 0.00 0.00 67 1019.1
20260510170841 78 174 3.5 3.5 0.00 0.00 0.00 64 1019.1
20260510170337 79 307 0.0 0.0 0.00 0.00 0.00 66 1019.1
20260510165832 78 307 0.0 1.7 0.00 0.00 0.00 67 1019.1
20260510165329 77 130 0.0 1.7 0.00 0.00 0.00 68 1019.1
20260510164827 76 130 0.0 2.6 0.00 0.00 0.00 71 1019.5
20260510164324 76 96 0.0 0.0 0.00 0.00 0.00 72 1019.5
20260510163823 75 327 0.0 0.0 0.00 0.00 0.00 77 1019.1
20260510163320 73 329 1.7 4.3 0.00 0.00 0.00 77 1019.5
20260510162820 72 354 0.0 0.0 0.00 0.00 0.00 78 1019.5
20260510162318 72 354 0.0 0.0 0.00 0.00 0.00 76 1019.5
20260510161813 71 354 0.0 0.0 0.00 0.00 0.00 76 1019.5
20260510161309 71 354 0.0 0.0 0.00 0.00 0.00 76 1019.5
20260510160806 71 354 0.0 0.0 0.00 0.00 0.00 77 1019.5
20260510160303 71 354 0.0 0.0 0.00 0.00 0.00 78 1019.5
20260510155803 71 354 0.0 0.0 0.00 0.00 0.00 78 1019.5
20260510155259 71 354 0.0 0.0 0.00 0.00 0.00 79 1019.5
20260510154755 71 354 0.0 0.0 0.00 0.00 0.00 78 1019.5
20260510154251 71 354 0.0 0.0 0.00 0.00 0.00 78 1019.5
20260510153746 71 354 0.0 0.0 0.00 0.00 0.00 80 1019.5
20260510153242 71 354 0.0 0.0 0.00 0.00 0.00 81 1019.5
20260510152739 70 354 0.0 0.0 0.00 0.00 0.00 82 1019.5
20260510152236 70 354 0.9 2.6 0.00 0.00 0.00 82 1019.5
20260510151732 69 354 0.0 0.0 0.00 0.00 0.00 84 1019.5
20260510151231 69 354 0.0 0.0 0.00 0.00 0.00 86 1019.5
20260510150726 69 354 0.0 0.0 0.00 0.00 0.00 85 1019.5
20260510150222 69 354 0.0 0.0 0.00 0.00 0.00 84 1019.5
20260510145718 69 354 0.0 0.0 0.00 0.00 0.00 85 1019.5
20260510145215 69 354 0.0 0.0 0.00 0.00 0.00 86 1019.5
20260510144711 68 354 0.0 1.7 0.00 0.00 0.00 89 1019.5
20260510144208 67 340 0.0 0.0 0.00 0.00 0.00 91 1019.5
20260510143702 67 340 0.0 0.0 0.00 0.00 0.00 92 1019.5
20260510143159 66 340 0.0 0.0 0.00 0.00 0.00 94 1019.8
20260510142655 66 340 0.0 0.0 0.00 0.00 0.00 94 1019.8
20260510142152 66 340 0.0 0.0 0.00 0.00 0.00 95 1019.8
20260510141649 66 340 0.0 0.0 0.00 0.00 0.00 96 1019.8
20260510141148 66 340 0.0 0.0 0.00 0.00 0.00 96 1019.8
20260510140644 66 340 0.0 0.0 0.00 0.00 0.00 96 1019.8
20260510140143 66 340 0.0 0.0 0.00 0.00 0.00 97 1019.8
20260510135638 65 340 0.0 0.0 0.00 0.00 0.00 97 1019.5
20260510135135 65 333 0.0 0.0 0.00 0.00 0.00 97 1019.5
20260510134632 65 327 0.0 0.0 0.00 0.00 0.00 97 1019.5
20260510134129 65 327 0.0 0.0 0.00 0.00 0.00 97 1019.5
20260510133625 65 327 0.0 0.0 0.00 0.00 0.00 97 1019.5
20260510133121 65 327 0.0 0.0 0.00 0.00 0.00 96 1019.5
20260510132618 65 327 0.0 0.0 0.00 0.00 0.00 97 1019.5
20260510132115 65 327 0.0 0.0 0.00 0.00 0.00 97 1019.5
20260510131612 65 327 0.0 0.0 0.00 0.00 0.00 96 1019.5
20260510131109 65 327 0.0 0.0 0.00 0.00 0.00 97 1019.5
20260510130606 65 327 0.0 0.0 0.00 0.00 0.00 97 1019.5
20260510130104 65 327 0.0 0.0 0.00 0.00 0.00 96 1019.1
20260510125559 65 327 0.0 0.0 0.00 0.00 0.00 97 1019.1
20260510125056 65 327 0.0 0.0 0.00 0.00 0.00 97 1019.1
20260510124552 64 327 0.0 0.0 0.00 0.00 0.00 98 1019.1
20260510124050 64 327 0.0 0.0 0.00 0.00 0.00 98 1019.1
20260510123545 64 9 0.0 0.0 0.00 0.00 0.00 98 1019.1
20260510123041 64 9 0.0 0.0 0.00 0.00 0.00 98 1018.8
20260510122537 64 9 0.0 0.0 0.00 0.00 0.00 99 1018.8
20260510122033 64 9 0.0 0.0 0.00 0.00 0.00 99 1018.8
20260510121531 64 9 0.0 0.0 0.00 0.00 0.00 99 1018.8
20260510121027 64 9 0.0 0.0 0.00 0.00 0.00 99 1018.8
20260510120525 64 9 0.0 0.0 0.00 0.00 0.00 99 1018.4
20260510120021 64 9 0.0 0.0 0.00 0.00 0.00 100 1018.4
20260510115518 64 9 0.0 0.0 0.00 0.00 0.00 100 1018.4
20260510115014 64 9 0.0 0.0 0.00 0.00 0.00 100 1018.1
20260510114510 64 9 0.0 0.0 0.00 0.00 0.00 100 1018.1
20260510114007 64 9 0.0 0.0 0.00 0.00 0.00 100 1017.8
20260510113502 64 9 0.0 0.0 0.00 0.00 0.00 100 1018.1
20260510113000 64 9 0.0 0.0 0.00 0.00 0.00 100 1017.8
20260510112456 64 9 0.0 0.0 0.00 0.00 0.00 100 1017.8
20260510111953 64 9 0.0 0.0 0.00 0.00 0.00 100 1017.8
20260510111449 64 9 0.0 0.0 0.00 0.00 0.00 100 1017.4
20260510110945 64 9 0.0 0.0 0.00 0.00 0.00 100 1017.4
20260510110442 64 9 0.0 0.0 0.00 0.00 0.00 100 1017.4
20260510105937 64 9 0.0 0.0 0.00 0.00 0.00 100 1017.1
20260510105432 64 9 0.0 0.0 0.00 0.00 0.00 100 1017.1
20260510104928 64 9 0.0 0.0 0.00 0.00 0.00 100 1017.1
20260510104425 64 9 0.0 0.0 0.00 0.00 0.00 100 1017.1
20260510103922 64 9 0.0 0.0 0.00 0.00 0.00 100 1017.1
20260510103420 63 9 0.0 0.0 0.00 0.00 0.00 100 1016.8
20260510102914 63 9 0.0 0.0 0.00 0.00 0.00 100 1016.8
20260510102410 63 9 0.0 0.0 0.00 0.00 0.00 100 1016.8
20260510101908 63 9 0.0 0.0 0.00 0.00 0.00 100 1016.8
20260510101406 63 9 0.0 0.0 0.00 0.00 0.00 100 1016.8
20260510100902 63 9 0.0 0.0 0.00 0.00 0.00 100 1016.8
20260510100400 63 9 0.0 0.0 0.00 0.00 0.00 100 1016.8
20260510095856 63 9 0.0 0.0 0.00 0.00 0.00 100 1016.8
20260510095350 63 9 0.0 0.0 0.00 0.00 0.00 100 1016.4
20260510094850 63 9 0.0 0.0 0.00 0.00 0.00 100 1016.4
20260510094345 63 9 0.0 0.0 0.00 0.00 0.00 100 1016.4
20260510093842 63 9 0.0 0.0 0.00 0.00 0.00 100 1016.4
20260510093338 63 9 0.0 0.0 0.00 0.00 0.00 100 1016.4
20260510092834 62 9 0.0 0.0 0.00 0.00 0.00 100 1016.1
20260510092330 62 9 0.0 0.0 0.00 0.00 0.00 100 1016.1
20260510091826 62 9 0.0 0.0 0.00 0.00 0.00 100 1016.1
20260510091324 62 9 0.0 0.0 0.00 0.00 0.00 100 1016.1
20260510090820 62 9 0.0 0.0 0.00 0.00 0.00 100 1016.1
20260510090317 62 9 0.0 0.0 0.00 0.00 0.00 100 1016.1
20260510085813 62 9 0.0 0.0 0.00 0.00 0.00 100 1016.1
20260510085313 62 9 0.0 0.0 0.00 0.00 0.00 100 1015.6
20260510084808 62 9 0.0 0.0 0.00 0.00 0.00 100 1015.6
20260510084306 61 9 0.0 0.0 0.00 0.00 0.00 100 1015.6
20260510083803 61 9 0.0 0.0 0.00 0.00 0.00 100 1015.6
20260510083259 61 9 0.0 0.0 0.00 0.00 0.00 100 1015.6
20260510082755 61 9 0.0 0.0 0.00 0.00 0.00 100 1015.3
20260510082252 61 9 0.0 0.0 0.00 0.00 0.00 100 1015.6
20260510081750 61 9 0.0 0.0 0.00 0.00 0.00 100 1015.6
20260510081247 61 9 0.0 0.0 0.00 0.00 0.00 100 1015.6
20260510080743 61 9 0.0 0.0 0.00 0.00 0.00 100 1015.6
20260510080238 61 9 0.0 0.0 0.00 0.00 0.00 100 1015.6
20260510075735 61 9 0.0 0.0 0.00 0.00 0.00 100 1015.3
20260510075233 61 9 0.0 0.0 0.00 0.00 0.00 100 1015.6
20260510074730 61 9 0.0 0.0 0.00 0.00 0.00 100 1015.3
20260510074226 61 9 0.0 0.0 0.00 0.00 0.00 100 1015.3
20260510073722 61 9 0.0 0.0 0.00 0.00 0.00 100 1015.3
20260510073218 61 9 0.0 0.0 0.00 0.00 0.00 100 1015.3
20260510072714 61 9 0.0 0.0 0.00 0.00 0.00 100 1015.3
20260510072211 61 9 0.0 0.0 0.00 0.00 0.00 100 1015.6
20260510071708 61 9 0.0 0.0 0.00 0.00 0.00 100 1015.3
20260510071204 61 9 0.0 0.0 0.00 0.00 0.00 100 1015.3
20260510070702 61 9 0.0 0.0 0.00 0.00 0.00 100 1015.6
20260510070159 61 9 0.0 0.0 0.00 0.00 0.00 100 1015.6
20260510065654 61 9 0.0 0.0 0.00 0.00 0.00 100 1015.6
20260510065150 61 9 0.0 0.0 0.00 0.00 0.00 100 1015.6
20260510064647 61 9 0.0 0.0 0.00 0.00 0.00 100 1015.6
20260510064144 61 9 0.0 0.0 0.00 0.00 0.00 100 1016.1
20260510063642 61 9 0.0 0.0 0.00 0.00 0.00 100 1015.6
20260510063138 61 9 0.0 0.0 0.00 0.00 0.00 100 1015.6
20260510062634 61 9 0.0 0.0 0.00 0.00 0.00 100 1015.6
20260510062130 61 9 0.0 0.0 0.00 0.00 0.00 100 1015.6
20260510061625 61 9 0.0 0.0 0.00 0.00 0.00 100 1015.6
20260510061124 61 9 0.0 0.0 0.00 0.00 0.00 100 1015.6
20260510060619 61 9 0.0 0.0 0.00 0.00 0.00 100 1016.1
20260510060116 62 9 0.0 0.0 0.00 0.00 0.00 100 1016.1
20260510055612 62 9 0.0 0.0 0.00 0.00 0.00 100 1015.6
20260510055110 62 9 0.0 0.0 0.00 0.00 0.00 100 1016.1
20260510054606 62 9 0.0 0.0 0.00 0.00 0.00 100 1016.1
20260510054101 62 9 0.0 0.0 0.00 0.00 0.00 100 1016.1
20260510053601 62 9 0.0 0.0 0.00 0.00 0.00 100 1016.1
20260510053058 62 9 0.0 0.0 0.00 0.00 0.00 100 1016.1
20260510052553 62 9 0.0 0.0 0.00 0.00 0.00 100 1016.1
20260510052050 62 9 0.0 0.0 0.00 0.00 0.00 100 1016.1
20260510051545 62 9 0.0 0.0 0.00 0.00 0.00 100 1016.1
20260510051043 62 9 0.0 0.0 0.00 0.00 0.00 100 1016.4
20260510050540 62 9 0.0 0.0 0.00 0.00 0.00 100 1016.1
20260510050037 62 9 0.0 0.0 0.00 0.00 0.00 100 1016.1
20260510045534 62 9 0.0 0.0 0.00 0.00 0.00 100 1016.1
20260510045030 62 9 0.0 0.0 0.00 0.00 0.00 100 1016.1
20260510044527 62 9 0.0 0.0 0.00 0.00 0.00 100 1016.1
20260510044025 62 9 0.0 0.0 0.00 0.00 0.00 100 1016.1
20260510043520 62 9 0.0 0.0 0.00 0.00 0.00 100 1016.1
20260510043015 62 9 0.0 0.0 0.00 0.00 0.00 100 1016.1
20260510042509 62 9 0.0 0.0 0.00 0.00 0.00 100 1016.1
20260510042005 62 9 0.0 0.0 0.00 0.00 0.00 100 1016.1
20260510041502 62 9 0.0 0.0 0.00 0.00 0.00 100 1016.4
20260510041000 62 9 0.0 0.0 0.00 0.00 0.00 100 1016.1
20260510040456 62 9 0.0 0.0 0.00 0.00 0.00 99 1016.1
20260510035952 62 9 0.0 0.0 0.00 0.02 0.02 99 1016.4
20260510035449 62 9 0.0 0.0 0.00 0.02 0.02 99 1016.1
20260510034948 62 9 0.0 0.0 0.00 0.02 0.02 99 1016.1
20260510034447 62 9 0.0 0.0 0.00 0.02 0.02 99 1016.1
20260510033943 62 9 0.0 0.0 0.00 0.02 0.02 99 1016.1
20260510033439 63 9 0.0 0.0 0.00 0.02 0.02 99 1016.4
20260510032937 63 9 0.0 0.0 0.00 0.02 0.02 99 1016.4
20260510032433 63 9 0.0 0.0 0.00 0.02 0.02 99 1016.4
20260510031928 63 9 0.0 0.0 0.00 0.02 0.02 99 1016.4
20260510031424 64 9 0.0 0.0 0.00 0.02 0.02 99 1016.4
20260510030919 64 9 0.0 0.0 0.00 0.02 0.02 99 1016.4
20260510030415 64 9 0.0 0.0 0.00 0.02 0.02 98 1016.4
20260510025913 64 9 0.0 0.0 0.00 0.02 0.02 98 1016.1
20260510025410 64 9 0.0 0.0 0.00 0.02 0.02 98 1016.1
20260510024908 64 9 0.0 0.0 0.00 0.02 0.02 98 1016.1
20260510024404 65 9 0.0 0.0 0.00 0.02 0.02 98 1016.1
20260510023900 65 9 0.0 0.0 0.00 0.02 0.02 98 1016.1
20260510023356 65 9 0.0 0.0 0.00 0.02 0.02 97 1015.6
20260510022854 65 9 0.0 0.0 0.00 0.02 0.02 97 1015.6
20260510022353 65 9 0.0 0.0 0.00 0.02 0.02 97 1015.6
20260510021851 65 9 0.0 0.0 0.00 0.02 0.02 97 1015.6
20260510021350 65 9 0.0 0.0 0.00 0.02 0.02 97 1015.6
20260510020846 65 9 0.0 0.0 0.00 0.02 0.02 97 1015.6
20260510020346 65 9 0.0 0.0 0.00 0.02 0.02 96 1015.6
20260510015842 65 9 0.0 0.0 0.00 0.02 0.02 96 1015.3
20260510015338 65 9 0.0 0.0 0.00 0.02 0.02 96 1015.3
20260510014833 65 9 0.0 0.0 0.00 0.02 0.02 96 1015.3
20260510014331 66 9 0.0 0.0 0.00 0.02 0.02 96 1015.0
20260510013827 66 9 0.0 0.0 0.00 0.02 0.02 95 1015.0
20260510013323 66 9 0.0 0.0 0.00 0.02 0.02 95 1015.0
20260510012818 66 9 0.0 0.0 0.00 0.02 0.02 95 1015.0
20260510012317 66 9 0.0 0.0 0.00 0.02 0.02 95 1014.6
20260510011813 66 9 0.0 0.0 0.00 0.02 0.02 94 1014.6
20260510011308 66 9 0.0 0.0 0.00 0.02 0.02 94 1014.6
20260510010805 67 9 0.0 0.0 0.00 0.02 0.02 94 1014.6
20260510010302 67 9 0.0 0.0 0.00 0.02 0.02 93 1014.3
20260510005759 67 9 0.0 0.0 0.00 0.02 0.02 93 1014.3
20260510005255 67 9 0.0 0.0 0.00 0.02 0.02 92 1014.3
20260510004753 67 9 0.0 0.0 0.00 0.02 0.02 92 1014.3
20260510004250 67 9 0.0 0.0 0.00 0.02 0.02 92 1013.9
20260510003748 68 9 0.0 0.0 0.00 0.02 0.02 91 1013.9
20260510003244 68 9 0.0 0.0 0.00 0.02 0.02 90 1014.3
20260510002743 68 9 0.0 0.0 0.00 0.02 0.02 89 1013.9
20260510002241 68 9 0.0 0.0 0.00 0.02 0.02 89 1013.9
20260510001737 69 9 0.0 0.0 0.00 0.02 0.02 89 1013.9
20260510001236 69 9 0.0 0.0 0.00 0.02 0.02 88 1013.9
20260510000731 69 9 0.0 0.0 0.00 0.02 0.02 88 1013.9
20260510000229 69 9 0.0 0.0 0.00 0.02 0.02 87 1013.9
20260509235725 69 9 0.0 0.0 0.00 0.02 0.02 87 1013.9
20260509235222 69 9 0.0 0.0 0.00 0.02 0.02 88 1013.6
20260509234718 69 9 0.0 0.0 0.00 0.02 0.02 88 1013.6
20260509234215 70 9 0.0 0.0 0.00 0.02 0.02 87 1013.3
20260509233713 70 9 0.0 0.0 0.00 0.02 0.02 86 1013.3
20260509233210 71 9 0.0 0.0 0.00 0.02 0.02 86 1013.3
20260509232707 71 9 0.0 0.0 0.00 0.02 0.02 85 1013.3
20260509232204 71 9 0.0 0.0 0.00 0.02 0.02 85 1013.3
20260509231700 71 9 0.0 0.0 0.00 0.02 0.02 84 1013.3
20260509231158 71 9 0.0 0.0 0.00 0.02 0.02 84 1013.3
20260509230654 71 9 0.0 0.0 0.00 0.02 0.02 83 1013.3
20260509230151 72 9 0.0 0.0 0.00 0.02 0.02 82 1013.3
20260509225647 72 9 0.0 0.0 0.00 0.02 0.02 81 1013.3
20260509225143 72 9 0.0 0.0 0.00 0.02 0.02 80 1012.9
20260509224638 73 9 0.0 0.0 0.00 0.02 0.02 78 1012.9
20260509224135 73 9 0.0 0.0 0.00 0.02 0.02 78 1012.9
20260509223632 73 9 0.0 0.0 0.00 0.02 0.02 76 1012.9
20260509223130 73 9 0.0 0.0 0.00 0.02 0.02 76 1012.9
20260509222626 73 9 0.0 0.0 0.00 0.02 0.02 76 1012.9
20260509222122 73 9 0.0 0.0 0.00 0.02 0.02 76 1012.9
20260509221618 73 9 0.0 0.0 0.00 0.02 0.02 76 1012.6
20260509221114 74 9 0.0 0.0 0.00 0.02 0.02 75 1012.6
20260509220610 74 9 0.0 0.0 0.00 0.02 0.02 73 1012.6
20260509220107 74 9 0.0 0.0 0.00 0.02 0.02 72 1012.6
20260509215602 74 9 0.0 0.0 0.00 0.02 0.02 74 1012.6
20260509215059 75 9 0.0 0.0 0.00 0.02 0.02 74 1012.6
20260509214556 75 9 0.0 0.0 0.00 0.02 0.02 72 1012.3
20260509214053 75 9 0.0 0.0 0.00 0.02 0.02 70 1012.6
20260509213549 75 9 0.0 0.0 0.00 0.02 0.02 69 1012.3
20260509213046 75 9 0.0 0.0 0.00 0.02 0.02 70 1012.6
20260509212543 75 9 0.0 0.0 0.00 0.02 0.02 66 1012.3
20260509212040 75 9 0.0 0.0 0.00 0.02 0.02 65 1012.3
20260509211536 75 9 0.0 0.0 0.00 0.02 0.02 64 1012.3
20260509211033 76 9 0.0 1.7 0.00 0.02 0.02 63 1012.3
20260509210530 76 136 0.0 0.0 0.00 0.02 0.02 62 1012.3
20260509210026 77 136 1.7 4.3 0.00 0.02 0.02 62 1012.3
20260509205520 77 198 0.0 0.0 0.00 0.02 0.02 64 1012.3
20260509205016 76 198 0.0 0.0 0.00 0.02 0.02 67 1012.3
20260509204512 76 198 0.0 0.0 0.00 0.02 0.02 67 1012.3
20260509204009 76 198 0.0 0.0 0.00 0.02 0.02 65 1012.3
20260509203504 76 198 0.0 0.0 0.00 0.02 0.02 64 1012.3
20260509203003 77 198 0.0 0.0 0.00 0.02 0.02 64 1012.6
20260509202458 77 198 0.0 0.0 0.00 0.02 0.02 60 1012.6
20260509201959 77 198 0.0 0.0 0.00 0.02 0.02 60 1012.6
20260509201454 76 198 0.0 0.0 0.00 0.02 0.02 62 1012.6
20260509200951 76 198 0.0 0.0 0.00 0.02 0.02 64 1012.3
20260509200446 77 198 0.9 1.7 0.00 0.02 0.02 63 1012.6
20260509195943 77 198 0.0 0.0 0.00 0.02 0.02 64 1012.3
20260509195439 77 198 0.0 0.0 0.00 0.02 0.02 64 1012.3
20260509194938 77 198 0.0 0.0 0.00 0.02 0.02 61 1012.6
20260509194434 77 198 0.0 0.0 0.00 0.02 0.02 61 1012.6
20260509193931 78 198 0.0 0.0 0.00 0.02 0.02 61 1012.6
20260509193430 78 198 0.0 0.0 0.00 0.02 0.02 59 1012.6
20260509192927 77 198 0.0 0.0 0.00 0.02 0.02 60 1012.9
20260509192424 77 198 0.0 0.0 0.00 0.02 0.02 64 1012.6
20260509191918 77 198 0.0 0.0 0.00 0.02 0.02 61 1012.9
20260509191414 78 198 0.9 1.7 0.00 0.02 0.02 61 1012.9
20260509190911 77 198 0.0 0.0 0.00 0.02 0.02 62 1012.9
20260509190408 77 198 1.7 2.6 0.00 0.02 0.02 62 1012.9
20260509185906 77 230 0.0 0.0 0.00 0.02 0.02 63 1012.9
20260509185402 76 248 0.0 1.7 0.00 0.02 0.02 62 1012.9
20260509184859 77 249 0.0 0.0 0.00 0.02 0.02 64 1012.9
20260509184355 75 249 0.0 0.0 0.00 0.02 0.02 66 1012.9
20260509183853 75 249 0.0 0.0 0.00 0.02 0.02 64 1012.9
20260509183348 76 93 0.0 0.0 0.00 0.02 0.02 66 1013.3
20260509182844 75 143 0.0 0.0 0.00 0.02 0.02 67 1013.3
20260509182341 74 143 0.0 0.0 0.00 0.02 0.02 69 1013.6
20260509181838 73 143 0.0 0.0 0.00 0.02 0.02 69 1013.6
20260509181335 74 143 0.0 1.7 0.00 0.02 0.02 69 1013.9
20260509180833 74 143 1.7 2.6 0.00 0.02 0.02 68 1013.9
20260509180329 74 143 0.0 1.7 0.00 0.02 0.02 71 1013.9
20260509175826 73 114 0.0 0.0 0.00 0.02 0.02 73 1013.9
20260509175322 72 114 0.0 0.0 0.00 0.02 0.02 72 1013.9
20260509174818 73 114 0.0 0.0 0.00 0.02 0.02 71 1014.3